Вернуться в каталог

DIRECTV 3

DBS/NIMIQ 3

АктивенСвязьGEO
NORAD 23598·PAYLOAD·🇺🇸 United States

Запущен Jun 10, 1995 с Guiana Space Centre

Loading…

TLE

СвежийSource: Space-Track

Эпоха: Sep 14, 2026, 13:22 UTC

1 23598U 95029A   26257.55723361  .00000012  00000-0  00000-0 0  9999
2 23598  12.1531  34.4485 0003450 259.5704 115.9853  0.99002209113653

Отслеживайте DIRECTV 3 в реальном времени с AllMySat

Download on the App Store